Find Starlink 33940

NORAD ID: 63831 Int'l Des: 2025-092 Owner: SPXS Country: US Constellation: starlink operational
LEOCIRCULAR

Live Position

Loading 3D Globe...

About Starlink 33940

Description loading...

Upcoming Passes

Passes for default location (London). Set your location on the main map for personalized predictions.

Altitude History

Loading altitude history...

Two-Line Element Set

1 63831U 25092AD 26103.99549547 .00012583 00000-0 46561-3 0 9997
2 63831 43.0011 333.2080 0001568 279.8805 80.1870 15.27606495 54064
Epoch: Apr 13, 2026 • Age: 9 hours

Current Status

Altitude 482.4 km
Velocity 7.63 km/s
Sub-Earth Point 1.37°N, 9.85°W
Launch Date May 4, 2025
Age 0.9 years
Type internet

Technical Details

Classification Payload
Mass 575.00 kg
Dry Mass 530.00 kg
Total Mass 575.00 kg
Length 0.30 m
Diameter 4.10 m
Span 29.00 m
Shape Box + pan
Manufacturer SPXS
Bus Type Starlink V2MO
Phase Status In Orbit
Owner/State SPXS/US

Most Searched